Location: Bad Rothenbrunn
(47.2167°N, 11.2167°E)
Time: 16:35:07
(UTC+00:00)

SME Rocket - Pass Details

Date: 03 March 2021
Orbit: 550 x 2652 km, 99.9° (Epoch: 19 April)

Event Time Altitude Azimuth Distance (km) Brightness Sun altitude
Rises 19:06:06 0° 15° (NNE) 5,056 7.7 -21.5°
Reaches altitude 10° 19:09:39 10° 16° (NNE) 3,746 7.0 -22.1°
Maximum altitude 19:18:04 85° 106° (ESE) 1,097 4.1 -23.4°
Drops below altitude 10° 19:23:25 10° 195° (SSW) 2,432 6.1 -24.3°
Sets 19:25:20 0° 196° (SSW) 3,196 6.7 -24.6°
